Погода в Пуэрто Вьехо

Коста-Рика     9°39′21″N   82°45′06″W
темп.,
°C
ветер,
м/с
пор.,
м/с
влажн.,
%
обл.,
%
осадки,
мм/ч
давл.,
гПа
погр.,
м
16 мая, вс
вс1600:00+27сз227576 3.1 1013229
03:00+26з227795 0.6 1012314
06:00+25юз3380100 0.6 1013188
09:00+26сз1172100 0.0 1014224
12:00+27с327232 0.0 1013398
15:00+28ссв337099 0.0 1011669
18:00+27ссв1270100 0.0 1012682
21:00+27зсз2275100 0.2 1013420
17 мая, пн
пн1700:00+26зюз338099 0.7 1012167
03:00+26з2277100 0.6 1011200
06:00+26з227693 0.9 1013238
09:00+27сз12710 0.2 1014298
12:00+27с337323 0.2 1012489
15:00+28ссв33736 0.0 1011638
18:00+27ссв127223 0.1 1012673
21:00+27ссв117352 0.0 1013579
18 мая, вт
вт1800:00+27сз117682 0.2 1013435
03:00+26зюз22828 0.0 1012263
06:00+26з228214 0.0 1013274
09:00+27сз227693 0.0 1014366
12:00+27с337465 0.3 1013390
15:00+28ссв337120 0.0 1010565
18:00+28с11714 0.0 1011532
21:00+27з1174100 0.0 1012393
19 мая, ср
ср1900:00+26юз217976 0.0 1011244
03:00+26зюз22817 0.0 1010209
06:00+26зюз22791 0.0 1011216
09:00+27ссз22760 0.0 1012319
12:00+27с33751 0.0 1011425
15:00+28с43720 0.0 1008533
18:00+28ссв12740 0.0 1010564
21:00+27зсз11770 0.0 1011425
20 мая, чт
чт2000:00+26зюз22820 0.0 1010225
03:00+26зюз22820 0.0 1009210
06:00+26юз22790 0.0 1010213
09:00+27ссз11730 0.0 1012251
12:00+27св22700 0.0 1010320
15:00+28св22705 0.0 1007435
18:00+28ссв22726 0.0 1009527
21:00+27юз107485 0.0 1011293